sat.trackr.live / text

‹ back to catalog

JILIN-1 GAOFEN 03D49

NORAD 54694 · 2022-167N

PAYLOAD ACTIVE UNKNOWN

§ Identity

Operator
Country
PRC
Launch date
2022-12-09
Launch site
SEAL
Launch vehicle
Mass (kg)
RCS (m²)

External: N2YO · Heavens-Above · Gunter

§ Orbital elements

Epoch: 2026-09-20T22:41:54.363840Z

Period
93.55 min
Inclination
97.6879°
Eccentricity
0.0005922
Mean motion
15.39349347 rev/d
Perigee alt
444.0 km
Apogee alt
452.1 km
Semi-major
6,826.2 km
B*
2.0541e-4
RAAN
78.5873°
Arg perigee
144.0386°
Mean anomaly
216.1258°
Rev number
21,021

§ Raw data

JILIN-1 GAOFEN 03D491 54694U 22167N   26263.94576810  .00007937  00000+0  20541-3 0  99952 54694  97.6879  78.5873 0005922 144.0386 216.1258 15.39349347210217

JSON: /api/v1/satellites/54694 · /tle

For live sub-satellite position, see the globe view (requires WebGL).

§ Visibility from observer

Set your observer location to see the next 7 days of passes ≥ 10°. The values pass through the URL so the page stays shareable.

No JS? Fill the form by hand. The geolocation button needs JavaScript.